Погода в Макаркине

Россия / Республика Марий Эл     56°09′39″N   46°15′29″E
темп.,
°C
ветер,
м/с
пор.,
м/с
влажн.,
%
обл.,
%
осадки,
мм/ч
давл.,
гПа
погр.,
м
22 января, сб
сб2200:00−8ююв61491100 0.2 1012660
03:00−8ююв51291100 0.4 1013562
06:00−10юв51093100 0.2 1014356
09:00−12юв399462 0.3 1016198
12:00−8юв489297 0.2 1016391
15:00−7юв4894100 0.4 1017378
18:00−7вюв3895100 0.2 1018242
21:00−6вюв3796100 0.8 1019244
23 января, вс
вс2300:00−6вюв1497100 1.4 1020172
03:00−8ю119867 1.6 102110
06:00−15ю22100100 0.0 102410
09:00−12ю23100100 0.1 102767
12:00−6ююз1297100 0.1 1029240
15:00−6юз0093100 0.1 103085
18:00−7в1195100 0.0 103210
21:00−8св1195100 0.0 103411
24 января, пн
пн2400:00−9св129698 0.0 103533
03:00−9всв129799 0.1 103744
06:00−9всв229796 0.0 103785
09:00−9св239797 0.1 1039115
12:00−8всв129591 0.0 1039133
15:00−10вюв119730 0.1 103810
18:00−16юв119964 0.0 10389
21:00−17юв229974 0.0 103811
25 января, вт
вт2500:00−18юв119947 0.0 103613
03:00−19ю22995 0.0 103518
06:00−20ююв221006 0.0 103317
09:00−18ю249711 0.0 103260
12:00−11ю37875 0.0 1029193
15:00−11ю25925 0.0 1028137
18:00−16ююв2496100 0.0 102655
21:00−14ю31094100 0.0 1025169
26 января, ср
ср2600:00−11ю3109595 0.2 1023262
03:00−11ю3995100 0.3 1023237
06:00−12ю2797100 0.1 1022140
09:00−11ю2796100 0.1 1022189
12:00−7ю3693100 0.1 1021265
15:00−6ююв2596100 0.6 1020296
18:00−7ююв3796100 0.7 1019287
21:00−7ю2796100 1.1 1018239